Regional Weather Roundup
Issued by NWS Albany, NY

Home | Current Version | Previous Version | Text Only | Print | Product List | Glossary On
Versions: 1 2 3 4 5 6 7 8 9 10 11 12 13 14 15 16 17 18 19 20 21 22 23 24 25 26 27 28
000
ASUS41 KALY 310110
RWRALY

NEW YORK STATE HOURLY WEATHER ROUNDUP
NATIONAL WEATHER SERVICE ALBANY NY
900 PM EDT TUE AUG 30 2016

NOTE: "FAIR" INDICATES FEW OR NO CLOUDS BELOW 12,000 FEET WITH NO
SIGNIFICANT WEATHER AND/OR NO OBSTRUCTIONS TO VISIBILITY.

NYZ032-033-038>043-046>054-057>066-NYZ062>081-082-084-310200-
EAST


CITY           SKY/WX    TMP DP  RH WIND       PRES   REMARKS
ALBANY         PTCLDY    69  59  70 CALM      30.04R
GLENS FALLS    CLEAR     68  59  73 SW5       30.03R
POUGHKEEPSIE   CLEAR     68  61  78 SE3       30.04R
NEWBURGH       PTCLDY    72  63  73 CALM      30.07R
MONTGOMERY     CLEAR     67  62  84 CALM      30.05R
WHITE PLAINS   CLOUDY    72  63  73 S6        30.06R
ISLIP          MOCLDY    74  64  71 S7        30.06R
NEW YORK CITY  MOCLDY    78  67  68 S10       30.05R
CENTRAL PARK   PTCLDY    76  65  68 CALM      30.08R
$$

NYZ005>009-017-018-044>046-055-056-310200-
CENTRAL


CITY           SKY/WX    TMP DP  RH WIND       PRES   REMARKS
FULTON         PTCLDY    67  63  87 S3        30.03F
SYRACUSE       CLOUDY    70  61  73 CALM      30.03S
ROME           CLOUDY    66  63  90 CALM      30.05S
ELMIRA         CLOUDY    68  62  81 W5        30.06R
BINGHAMTON     CLOUDY    70  55  59 CALM      30.09S
MONTICELLO     CLOUDY    66  59  77 N3        30.11R
$$

NYZ026>034-041>043-087-310200-
NORTH


CITY           SKY/WX    TMP DP  RH WIND       PRES   REMARKS
WATERTOWN      MOCLDY    71  59  65 VRB3      30.00F
FORT DRUM      NOT AVBL
MASSENA        CLOUDY    69  59  70 S5        29.98S
SARANAC LAKE   CLOUDY    66  58  75 CALM      30.05F
PLATTSBURGH    CLOUDY    69  64  84 CALM      29.99F
$$

NYZ001>004-010>016-019>021-085-310200-
WEST


CITY           SKY/WX    TMP DP  RH WIND       PRES   REMARKS
NIAGARA FALLS  MOCLDY    74  61  63 S8        30.03F
BUFFALO        CLOUDY    73  61  65 S8        30.05S
DUNKIRK        CLOUDY    67  62  84 S5        30.06S
JAMESTOWN      CLOUDY    70  61  73 NE5       30.11S
WELLSVILLE     CLOUDY    69  58  67 CALM      30.14R
ROCHESTER      MOCLDY    71  64  78 SW3       30.04F
PENN YAN       CLOUDY    72  62  71 CALM      30.07R
$$

             KEY
       WCI = WIND CHILL INDEX
       VSB = VISIBILITY
       HX  = HEAT INDEX
$$




USA.gov is the U.S. government's official web portal to all federal, state and local government web resources and services.